CES8667 ZGSZ-ZSAM

Flight info

Callsign CES8667
Flight time 0h 51m
Altitude 33100
Route OVGOT1 OVGOT R200 BEBEM A470 TEBON TEBON8X
Aircraft B738/M-SDE2E3FGHIRWXY/LB1

Departure

Time 2026-04-25 15:52
Airport Shenzhen Bao'an International Airport (ZGSZ)

Arrival

Time 2026-04-25 16:43
Airport Xiamen Gaoqi International Airport (ZSAM)
Time Latitude Longitude Altitude Speed Heading
2026-04-25 15:26 22.63487 113.80761 12 ft 0 kts 164°
2026-04-25 15:43 22.63490 113.80761 13 ft 4 kts 147°
2026-04-25 15:43 22.63508 113.80756 15 ft 4 kts 161°
2026-04-25 15:43 22.63532 113.80744 13 ft 4 kts 140°
2026-04-25 15:43 22.63549 113.80722 15 ft 3 kts 117°
2026-04-25 15:44 22.63552 113.80715 13 ft 0 kts 116°
2026-04-25 15:45 22.63552 113.80716 13 ft 2 kts 116°
2026-04-25 15:45 22.63551 113.80722 13 ft 3 kts 96°
2026-04-25 15:46 22.63599 113.80835 11 ft 15 kts 61°
2026-04-25 15:46 22.63632 113.80908 11 ft 6 kts 66°
2026-04-25 15:46 22.63663 113.80962 12 ft 7 kts 35°
2026-04-25 15:46 22.63667 113.80965 12 ft 7 kts 28°
2026-04-25 15:47 22.63704 113.80968 13 ft 10 kts 348°
2026-04-25 15:47 22.63794 113.80921 13 ft 21 kts 334°
2026-04-25 15:47 22.63954 113.80831 13 ft 27 kts 334°
2026-04-25 15:47 22.64131 113.80738 10 ft 14 kts 334°
2026-04-25 15:48 22.64218 113.80689 10 ft 20 kts 332°
2026-04-25 15:48 22.64381 113.80598 10 ft 32 kts 333°
2026-04-25 15:48 22.64559 113.80500 14 ft 0 kts 334°
2026-04-25 15:48 22.64606 113.80475 14 ft 15 kts 334°
2026-04-25 15:49 22.64720 113.80411 16 ft 15 kts 331°
2026-04-25 15:49 22.64844 113.80343 18 ft 22 kts 328°
2026-04-25 15:49 22.64980 113.80256 15 ft 29 kts 329°
2026-04-25 15:49 22.65135 113.80179 14 ft 15 kts 339°
2026-04-25 15:50 22.65169 113.80167 13 ft 8 kts 349°
2026-04-25 15:50 22.65237 113.80220 14 ft 0 kts 59°
2026-04-25 15:50 22.65248 113.80243 13 ft 10 kts 62°
2026-04-25 15:50 22.65257 113.80261 13 ft 0 kts 63°
2026-04-25 15:51 22.65264 113.80277 13 ft 8 kts 66°
2026-04-25 15:51 22.65264 113.80301 14 ft 11 kts 102°
2026-04-25 15:51 22.65057 113.80445 15 ft 50 kts 153°
2026-04-25 15:51 22.64510 113.80745 12 ft 124 kts 153°
2026-04-25 15:52 22.63580 113.81289 104 ft 173 kts 150°
2026-04-25 15:52 22.62584 113.81856 1161 ft 153 kts 153°
2026-04-25 15:52 22.61596 113.82379 1909 ft 164 kts 153°
2026-04-25 15:52 22.60466 113.82977 2351 ft 202 kts 153°
2026-04-25 15:53 22.59099 113.83709 2687 ft 236 kts 153°
2026-04-25 15:53 22.57604 113.84515 3548 ft 242 kts 153°
2026-04-25 15:53 22.56103 113.85326 4591 ft 242 kts 154°
2026-04-25 15:53 22.54579 113.86150 5487 ft 248 kts 153°
2026-04-25 15:54 22.53029 113.87017 6365 ft 254 kts 147°
2026-04-25 15:54 22.51795 113.88373 7170 ft 259 kts 121°
2026-04-25 15:54 22.51107 113.90187 7990 ft 264 kts 105°
2026-04-25 15:54 22.50808 113.92143 8788 ft 269 kts 83°
2026-04-25 15:55 22.51144 113.93432 9361 ft 269 kts 63°
2026-04-25 15:55 22.52360 113.95796 10500 ft 273 kts 59°
2026-04-25 15:55 22.53277 113.97604 11282 ft 277 kts 59°
2026-04-25 15:55 22.54186 113.99457 12063 ft 281 kts 59°
2026-04-25 15:56 22.55372 114.01111 12829 ft 279 kts 34°
2026-04-25 15:56 22.57115 114.02032 13328 ft 289 kts
2026-04-25 15:56 22.59188 114.02307 13545 ft 312 kts
2026-04-25 15:56 22.61411 114.02500 13918 ft 329 kts
2026-04-25 15:57 22.63715 114.02717 14502 ft 336 kts
2026-04-25 15:57 22.66049 114.02964 15203 ft 340 kts
2026-04-25 15:57 22.68282 114.03764 15860 ft 351 kts 26°
2026-04-25 15:57 22.70184 114.05470 16533 ft 364 kts 48°
2026-04-25 15:58 22.71391 114.07785 17161 ft 375 kts 69°
2026-04-25 15:58 22.71901 114.10573 17818 ft 383 kts 81°
2026-04-25 15:58 22.72203 114.13485 18441 ft 390 kts 82°
2026-04-25 15:58 22.72463 114.16440 19002 ft 395 kts 83°
2026-04-25 15:59 22.72724 114.19401 19598 ft 398 kts 82°
2026-04-25 15:59 22.73001 114.22390 20190 ft 402 kts 82°
2026-04-25 15:59 22.73295 114.25412 20775 ft 406 kts 82°
2026-04-25 15:59 22.73602 114.28459 21335 ft 410 kts 81°
2026-04-25 16:00 22.73707 114.29487 21523 ft 412 kts 81°
2026-04-25 16:00 22.74025 114.32583 22082 ft 416 kts 81°
2026-04-25 16:00 22.74564 114.37807 22985 ft 423 kts 81°
2026-04-25 16:00 22.74889 114.40973 23500 ft 427 kts 81°
2026-04-25 16:01 22.75219 114.44188 23946 ft 431 kts 81°
2026-04-25 16:01 22.75549 114.47418 24397 ft 435 kts 81°
2026-04-25 16:01 22.75884 114.50689 24723 ft 442 kts 82°
2026-04-25 16:01 22.76221 114.54002 25212 ft 443 kts 82°
2026-04-25 16:02 22.76562 114.57310 25759 ft 443 kts 81°
2026-04-25 16:02 22.76908 114.60627 26194 ft 446 kts 81°
2026-04-25 16:02 22.77259 114.63980 26533 ft 452 kts 81°
2026-04-25 16:02 22.77613 114.67375 26918 ft 456 kts 81°
2026-04-25 16:03 22.77967 114.70790 27347 ft 458 kts 82°
2026-04-25 16:03 22.78322 114.74226 27769 ft 461 kts 82°
2026-04-25 16:03 22.78681 114.77681 28164 ft 464 kts 81°
2026-04-25 16:03 22.79051 114.81160 28528 ft 468 kts 81°
2026-04-25 16:04 22.79425 114.84664 29010 ft 468 kts 81°
2026-04-25 16:04 22.79798 114.88150 29604 ft 467 kts 81°
2026-04-25 16:04 22.80168 114.91623 30172 ft 465 kts 81°
2026-04-25 16:04 22.80537 114.95097 30572 ft 466 kts 81°
2026-04-25 16:05 22.80908 114.98600 30927 ft 468 kts 82°
2026-04-25 16:05 22.81277 115.02100 31319 ft 469 kts 82°
2026-04-25 16:05 22.82013 115.09109 32119 ft 469 kts 82°
2026-04-25 16:06 22.82380 115.12619 32535 ft 469 kts 82°
2026-04-25 16:06 22.82746 115.16123 32957 ft 469 kts 82°
2026-04-25 16:06 22.83112 115.19637 33163 ft 473 kts 82°
2026-04-25 16:07 22.83851 115.26739 33156 ft 474 kts 82°
2026-04-25 16:07 22.84577 115.33769 33153 ft 468 kts 82°
2026-04-25 16:08 22.85301 115.40800 33172 ft 471 kts 82°
2026-04-25 16:08 22.86026 115.47863 33167 ft 474 kts 82°
2026-04-25 16:09 22.86751 115.54970 33168 ft 475 kts 82°
2026-04-25 16:09 22.87474 115.62083 33157 ft 476 kts 82°
2026-04-25 16:10 22.88192 115.69185 33159 ft 475 kts 83°
2026-04-25 16:10 22.88907 115.76280 33161 ft 474 kts 83°
2026-04-25 16:11 22.89617 115.83361 33162 ft 472 kts 83°
2026-04-25 16:11 22.90322 115.90419 33156 ft 471 kts 83°
2026-04-25 16:12 22.91028 115.97466 33152 ft 471 kts 83°
2026-04-25 16:12 22.91734 116.04500 33166 ft 471 kts 83°
2026-04-25 16:13 22.92468 116.11551 33164 ft 472 kts 83°
2026-04-25 16:13 22.93081 116.17432 33160 ft 473 kts 83°
2026-04-25 16:14 22.93935 116.25702 32986 ft 475 kts 83°
2026-04-25 16:14 22.94299 116.29248 32649 ft 471 kts 83°
2026-04-25 16:14 22.94829 116.32711 32259 ft 464 kts 71°
2026-04-25 16:14 22.96109 116.35868 31929 ft 454 kts 54°
2026-04-25 16:15 22.97973 116.38561 31538 ft 443 kts 40°
2026-04-25 16:15 23.00294 116.40660 31181 ft 432 kts 31°
2026-04-25 16:15 23.02698 116.42593 30784 ft 430 kts 31°
2026-04-25 16:15 23.05095 116.44515 30415 ft 428 kts 31°
2026-04-25 16:16 23.07472 116.46436 30019 ft 427 kts 31°
2026-04-25 16:16 23.09835 116.48365 29597 ft 424 kts 31°
2026-04-25 16:16 23.12177 116.50291 29191 ft 421 kts 31°
2026-04-25 16:16 23.14323 116.52063 28809 ft 418 kts 32°
2026-04-25 16:17 23.16623 116.53968 28421 ft 415 kts 32°
2026-04-25 16:17 23.18910 116.55863 28036 ft 412 kts 32°
2026-04-25 16:17 23.21177 116.57743 27651 ft 410 kts 32°
2026-04-25 16:17 23.23432 116.59612 27264 ft 407 kts 32°
2026-04-25 16:18 23.25673 116.61471 26895 ft 405 kts 32°
2026-04-25 16:18 23.26412 116.62084 26773 ft 404 kts 32°
2026-04-25 16:18 23.30109 116.65152 26146 ft 400 kts 32°
2026-04-25 16:18 23.32313 116.66983 25777 ft 398 kts 32°
2026-04-25 16:19 23.34505 116.68803 25394 ft 397 kts 32°
2026-04-25 16:19 23.36683 116.70612 25026 ft 395 kts 32°
2026-04-25 16:19 23.38865 116.72426 24637 ft 395 kts 32°
2026-04-25 16:20 23.43202 116.76034 23886 ft 393 kts 32°
2026-04-25 16:20 23.45263 116.77985 23580 ft 393 kts 39°
2026-04-25 16:20 23.49011 116.82232 23076 ft 383 kts 42°
2026-04-25 16:21 23.50801 116.84315 23057 ft 372 kts 41°
2026-04-25 16:21 23.52542 116.86332 23047 ft 360 kts 41°
2026-04-25 16:21 23.54232 116.88275 23041 ft 347 kts 40°
2026-04-25 16:21 23.55870 116.90148 22944 ft 338 kts 40°
2026-04-25 16:22 23.57359 116.91841 22721 ft 335 kts 40°
2026-04-25 16:22 23.58972 116.93669 22340 ft 336 kts 40°
2026-04-25 16:22 23.60619 116.95530 21532 ft 351 kts 40°
2026-04-25 16:22 23.62364 116.97498 20689 ft 369 kts 41°
2026-04-25 16:23 23.63983 116.99336 20321 ft 369 kts 41°
2026-04-25 16:23 23.65743 117.01344 20055 ft 365 kts 41°
2026-04-25 16:23 23.67485 117.03330 19775 ft 361 kts 41°
2026-04-25 16:23 23.69208 117.05294 19455 ft 358 kts 41°
2026-04-25 16:24 23.70920 117.07244 19159 ft 356 kts 41°
2026-04-25 16:24 23.72629 117.09189 18852 ft 354 kts 41°
2026-04-25 16:24 23.74319 117.11114 18543 ft 352 kts 41°
2026-04-25 16:24 23.76001 117.13030 18231 ft 349 kts 41°
2026-04-25 16:25 23.77703 117.14867 17890 ft 345 kts 37°
2026-04-25 16:25 23.78284 117.15451 17777 ft 344 kts 37°
2026-04-25 16:25 23.81248 117.18321 17228 ft 340 kts 36°
2026-04-25 16:25 23.83013 117.20012 16884 ft 337 kts 36°
2026-04-25 16:26 23.84766 117.21698 16521 ft 336 kts 36°
2026-04-25 16:26 23.86504 117.23379 16193 ft 333 kts 36°
2026-04-25 16:26 23.88228 117.25053 15859 ft 331 kts 37°
2026-04-25 16:26 23.89942 117.26722 15543 ft 329 kts 37°
2026-04-25 16:27 23.91635 117.28375 15259 ft 325 kts 37°
2026-04-25 16:27 23.93316 117.30016 14954 ft 324 kts 37°
2026-04-25 16:27 23.94994 117.31657 14661 ft 323 kts 37°
2026-04-25 16:27 23.96654 117.33281 14373 ft 321 kts 37°
2026-04-25 16:28 23.98305 117.34899 14080 ft 319 kts 37°
2026-04-25 16:28 23.99950 117.36510 13792 ft 317 kts 37°
2026-04-25 16:28 24.01569 117.38096 13458 ft 315 kts 38°
2026-04-25 16:28 24.03203 117.39697 13111 ft 314 kts 38°
2026-04-25 16:29 24.04825 117.41287 12780 ft 313 kts 38°
2026-04-25 16:29 24.06403 117.42835 12512 ft 309 kts 38°
2026-04-25 16:29 24.08005 117.44406 12149 ft 309 kts 38°
2026-04-25 16:29 24.09632 117.46002 11792 ft 309 kts 38°
2026-04-25 16:30 24.11221 117.47562 11503 ft 306 kts 38°
2026-04-25 16:30 24.12776 117.49089 11446 ft 294 kts 39°
2026-04-25 16:30 24.14237 117.50565 11358 ft 278 kts 42°
2026-04-25 16:30 24.15526 117.52057 11272 ft 262 kts 44°
2026-04-25 16:31 24.16697 117.53477 11158 ft 247 kts 44°
2026-04-25 16:31 24.17817 117.54842 11059 ft 233 kts 44°
2026-04-25 16:31 24.18870 117.56123 10954 ft 220 kts 44°
2026-04-25 16:31 24.19871 117.57334 10781 ft 211 kts 44°
2026-04-25 16:32 24.20850 117.58514 10501 ft 209 kts 44°
2026-04-25 16:32 24.21830 117.59691 10230 ft 209 kts 44°
2026-04-25 16:32 24.22805 117.60863 9952 ft 208 kts 44°
2026-04-25 16:32 24.23779 117.62032 9613 ft 207 kts 44°
2026-04-25 16:33 24.24745 117.63191 9308 ft 206 kts 45°
2026-04-25 16:33 24.25700 117.64337 9022 ft 204 kts 45°
2026-04-25 16:33 24.26655 117.65482 8684 ft 205 kts 45°
2026-04-25 16:33 24.27653 117.66677 8119 ft 219 kts 45°
2026-04-25 16:34 24.28726 117.67961 7317 ft 242 kts 46°
2026-04-25 16:34 24.29916 117.69388 6784 ft 258 kts 46°
2026-04-25 16:34 24.31139 117.70856 6561 ft 266 kts 46°
2026-04-25 16:34 24.32400 117.72373 6282 ft 274 kts 46°
2026-04-25 16:35 24.33678 117.73911 5976 ft 274 kts 46°
2026-04-25 16:35 24.34953 117.75444 5825 ft 269 kts 46°
2026-04-25 16:35 24.36201 117.76947 5674 ft 263 kts 46°
2026-04-25 16:35 24.37412 117.78400 5565 ft 255 kts 46°
2026-04-25 16:36 24.38587 117.79813 5468 ft 248 kts 46°
2026-04-25 16:36 24.38973 117.80280 5428 ft 246 kts 47°
2026-04-25 16:36 24.39972 117.83098 5153 ft 241 kts 83°
2026-04-25 16:36 24.40106 117.84904 4917 ft 242 kts 85°
2026-04-25 16:37 24.40222 117.86761 4660 ft 243 kts 85°
2026-04-25 16:37 24.40346 117.88607 4403 ft 243 kts 85°
2026-04-25 16:37 24.40477 117.90442 4164 ft 242 kts 85°
2026-04-25 16:37 24.40614 117.92270 3918 ft 240 kts 83°
2026-04-25 16:38 24.41158 117.93966 3668 ft 237 kts 57°
2026-04-25 16:38 24.42080 117.95415 3432 ft 228 kts 53°
2026-04-25 16:38 24.43000 117.96746 3328 ft 206 kts 52°
2026-04-25 16:38 24.43849 117.97938 3100 ft 192 kts 52°
2026-04-25 16:39 24.44642 117.99049 2865 ft 179 kts 52°
2026-04-25 16:39 24.45381 118.00087 2664 ft 164 kts 53°
2026-04-25 16:39 24.46037 118.01007 2462 ft 142 kts 53°
2026-04-25 16:39 24.46616 118.01822 2257 ft 132 kts 53°
2026-04-25 16:40 24.47180 118.02614 2093 ft 133 kts 54°
2026-04-25 16:40 24.47742 118.03405 1906 ft 131 kts 53°
2026-04-25 16:40 24.48306 118.04195 1734 ft 131 kts 53°
2026-04-25 16:40 24.48869 118.04986 1558 ft 131 kts 53°
2026-04-25 16:41 24.49425 118.05767 1380 ft 130 kts 53°
2026-04-25 16:41 24.49796 118.06288 1274 ft 131 kts 52°
2026-04-25 16:41 24.51124 118.08151 869 ft 134 kts 52°
2026-04-25 16:42 24.51699 118.08957 682 ft 135 kts 53°
2026-04-25 16:42 24.52273 118.09763 508 ft 135 kts 52°
2026-04-25 16:42 24.52847 118.10556 366 ft 133 kts 52°
2026-04-25 16:42 24.53417 118.11373 138 ft 136 kts 53°
2026-04-25 16:43 24.53974 118.12158 53 ft 121 kts 53°
2026-04-25 16:43 24.54422 118.12779 49 ft 82 kts 52°
2026-04-25 16:43 24.54678 118.13142 50 ft 45 kts 52°
2026-04-25 16:43 24.54796 118.13309 48 ft 15 kts 50°
2026-04-25 16:44 24.54859 118.13393 50 ft 14 kts 52°
2026-04-25 16:44 24.54901 118.13485 47 ft 13 kts 67°
2026-04-25 16:44 24.54927 118.13580 48 ft 13 kts 78°
2026-04-25 16:44 24.54930 118.13675 47 ft 13 kts 112°
2026-04-25 16:45 24.54869 118.13741 45 ft 12 kts 142°
2026-04-25 16:45 24.54789 118.13736 47 ft 12 kts 177°
2026-04-25 16:45 24.54715 118.13770 47 ft 12 kts 185°
2026-04-25 16:45 24.54653 118.13719 46 ft 11 kts 232°
2026-04-25 16:46 24.54608 118.13651 47 ft 11 kts 234°
2026-04-25 16:46 24.54588 118.13574 49 ft 11 kts 261°
2026-04-25 16:46 24.54551 118.13506 49 ft 10 kts 232°
2026-04-25 16:46 24.54536 118.13485 49 ft 10 kts 232°
2026-04-25 16:47 24.54434 118.13342 50 ft 21 kts 231°
2026-04-25 16:47 24.54338 118.13209 52 ft 21 kts 231°
2026-04-25 16:47 24.54260 118.13102 52 ft 16 kts 232°
2026-04-25 16:47 24.54205 118.13025 52 ft 10 kts 232°
2026-04-25 16:48 24.54188 118.13005 52 ft 5 kts 217°
2026-04-25 16:48 24.54155 118.13005 53 ft 5 kts 152°
2026-04-25 16:48 24.54132 118.13024 53 ft 5 kts 143°
2026-04-25 16:48 24.54119 118.13035 52 ft 2 kts 143°
2026-04-25 16:49 24.54117 118.13036 52 ft 0 kts 143°